Regional Weather Roundup
Issued by NWS

Home | Current Version | Previous Version | Graphics & Text | Print | Product List | Glossary On
Versions: 1 2 3 4 5 6 7 8 9 10 11 12 13 14 15 16 17 18 19 20 21 22 23 24 25 26 27
000
ASUS45 KSLC 252110
RWRUT

UTAH REGIONAL WEATHER ROUNDUP
NATIONAL WEATHER SERVICE SALT LAKE CITY UT
300 PM MDT THU MAY 25 2017

UTZ001>011-023>025-252200-

NORTHERN UTAH

CITY           SKY/WX    TMP DP  RH WIND       PRES   REMARKS
BRIGHAM CITY     N/A     64  22  19 SW8       29.76S
DUGWAY         MOSUNNY   69  29  22 NW8G16    29.72S
HILL AFB         N/A     63  26  24 W7        29.77S
LOGAN            N/A     64  27  24 VRB5      29.75S
OGDEN            N/A     65  23  20 W7        29.75F
SALT LAKE CITY   N/A     69  31  24 N20       29.74S
TOOELE VALLEY    N/A     64  34  32 N15       29.74
WENDOVER         N/A     68  28  22 SE12      29.72S
HEBER CITY       N/A     68  32  26 SW10      29.74R
WEST JORDAN      N/A     65  40  39 N13G18    29.75S

$$

UTZ011>015-024>027-252200-

CENTRAL/NORTHEAST UTAH

CITY           SKY/WX    TMP DP  RH WIND       PRES   REMARKS
PROVO AIRPORT    N/A     67  37  33 NW10      29.74S
MOAB/CANYONLAN   N/A     80  21  11 W17G38    29.60R
DELTA            N/A     72  30  21 CALM      29.70F
PRICE            N/A     72  29  20 W17G25    29.71S
ROOSEVELT      MOSUNNY   72  28  20 W24G37    29.69S
VERNAL         SUNNY     74  32  21 W22G33    29.64

$$

UTZ013>016-019>022-027-252200-

SOUTHERN UTAH

CITY           SKY/WX    TMP DP  RH WIND       PRES   REMARKS
BRYCE CANYON     N/A     67  24  19 W23       29.84F
CEDAR CITY       N/A     79  23  12 W22G36    29.71F
MILFORD        LGT RAIN  75  29  18 W7G23     29.68F
HANKSVILLE       N/A     81  21  11 W9        29.62F
BLANDING         N/A     78  23  12 W16G24    29.78F

$$

REGIONAL REPORTS     COLORADO/ARIZONA

CITY           SKY/WX    TMP DP  RH WIND       PRES   REMARKS
CRAIG, CO      MOSUNNY   69  39  33 NW10G17   29.67F
GRAND JUNCTION PTSUNNY   82  26  13 W21G35    29.60F
RIFLE, CO      MOSUNNY   79  23  12 SW22G35   29.62F
MONTROSE, CO   CLOUDY    74  28  18 W7        29.71S
CORTEZ, CO     SUNNY     80  21  11 W24G38    29.73F
COLORADO CITY    N/A     84  30  14 W8G22     29.73F
PAGE, AZ         N/A     85  24  11 SW9       29.63
GRAND CANYON     N/A     75  16  10 SW24G39   29.86S
KINGMAN, AZ      N/A     90  25   9 SW17G36   29.71S
FLAGSTAFF, AZ    N/A     74  21  13 SW22G35   29.92S

$$

REGIONAL REPORTS    NEVADA/IDAHO/WYOMING

CITY           SKY/WX    TMP DP  RH WIND       PRES   REMARKS
LAS VEGAS, NV    N/A     98  15   5 W16G24    29.53S HX  91
ELY, NY        PTSUNNY   68  22  17 W10G23    29.78F
ELKO, NV         N/A     69  22  16 W15G22    29.73F
POCATELLO, ID  MOSUNNY   62  31  31 W12       29.79S
BURLEY, ID       N/A     58  27  30 VRB5      29.76F
FORT BRIDGER,  CLOUDY    56  26  31 W20G25    29.82R
EVANSTON, WY   PTSUNNY   57  29  34 W20G25    29.81R
ROCK SPRINGS,  CLOUDY    59  24  26 W16G31    29.75S
KEMMERER, WY     N/A     52  23  32 W12G20    29.81R

$$




USA.gov is the U.S. government's official web portal to all federal, state and local government web resources and services.